EZY58B EGKK-EHRD

Flight info

Callsign EZY58B
Flight time 0h 38m
Altitude 23000
Route FRANE M604 GASBA M197 REDFA
Aircraft A20N/M-SDE2E3FGHIRWXY/LB1

Departure

Time 2026-05-05 11:42
Airport London Gatwick Airport (EGKK)

Arrival

Time 2026-05-05 12:20
Airport Rotterdam The Hague Airport (EHRD)
Time Latitude Longitude Altitude Speed Heading
2026-05-05 11:17 51.15431 -0.17703 204 ft 0 kts 167°
2026-05-05 11:27 51.15433 -0.17703 213 ft 1 kts 167°
2026-05-05 11:27 51.15440 -0.17706 210 ft 1 kts 167°
2026-05-05 11:28 51.15448 -0.17709 204 ft 1 kts 167°
2026-05-05 11:28 51.15455 -0.17712 204 ft 1 kts 167°
2026-05-05 11:28 51.15463 -0.17714 204 ft 1 kts 166°
2026-05-05 11:28 51.15471 -0.17717 204 ft 1 kts 166°
2026-05-05 11:29 51.15483 -0.17722 209 ft 2 kts 166°
2026-05-05 11:29 51.15498 -0.17726 210 ft 2 kts 189°
2026-05-05 11:29 51.15506 -0.17723 213 ft 1 kts 216°
2026-05-05 11:29 51.15513 -0.17712 210 ft 1 kts 255°
2026-05-05 11:30 51.15513 -0.17710 210 ft 0 kts 258°
2026-05-05 11:32 51.15512 -0.17722 213 ft 3 kts 259°
2026-05-05 11:32 51.15498 -0.17813 208 ft 15 kts 258°
2026-05-05 11:32 51.15472 -0.18013 215 ft 21 kts 258°
2026-05-05 11:32 51.15423 -0.18253 208 ft 24 kts 220°
2026-05-05 11:33 51.15262 -0.18235 210 ft 25 kts 168°
2026-05-05 11:33 51.15187 -0.18333 209 ft 3 kts 274°
2026-05-05 11:33 51.15174 -0.18429 210 ft 15 kts 256°
2026-05-05 11:33 51.15145 -0.18631 204 ft 22 kts 258°
2026-05-05 11:34 51.15107 -0.18908 207 ft 29 kts 257°
2026-05-05 11:34 51.15058 -0.19249 205 ft 34 kts 257°
2026-05-05 11:34 51.15005 -0.19645 205 ft 39 kts 258°
2026-05-05 11:34 51.14948 -0.20025 204 ft 19 kts 255°
2026-05-05 11:35 51.14913 -0.20273 212 ft 26 kts 260°
2026-05-05 11:35 51.14872 -0.20583 213 ft 30 kts 257°
2026-05-05 11:35 51.14829 -0.20886 207 ft 28 kts 258°
2026-05-05 11:35 51.14808 -0.21067 208 ft 0 kts 258°
2026-05-05 11:36 51.14806 -0.21086 207 ft 3 kts 258°
2026-05-05 11:36 51.14793 -0.21159 208 ft 11 kts 251°
2026-05-05 11:36 51.14766 -0.21301 213 ft 11 kts 255°
2026-05-05 11:36 51.14739 -0.21399 209 ft 3 kts 220°
2026-05-05 11:37 51.14728 -0.21405 207 ft 1 kts 190°
2026-05-05 11:37 51.14723 -0.21405 212 ft 0 kts 180°
2026-05-05 11:39 51.14670 -0.21372 208 ft 9 kts 149°
2026-05-05 11:40 51.14622 -0.21328 215 ft 16 kts 155°
2026-05-05 11:40 51.14532 -0.21233 205 ft 12 kts 121°
2026-05-05 11:40 51.14529 -0.21125 212 ft 0 kts 76°
2026-05-05 11:41 51.14544 -0.21028 212 ft 40 kts 78°
2026-05-05 11:41 51.14664 -0.20158 210 ft 117 kts 76°
2026-05-05 11:42 51.14873 -0.18596 392 ft 157 kts 77°
2026-05-05 11:42 51.15078 -0.16940 1415 ft 150 kts 75°
2026-05-05 11:42 51.15304 -0.15300 2315 ft 157 kts 74°
2026-05-05 11:42 51.15558 -0.13532 2822 ft 172 kts 74°
2026-05-05 11:43 51.15837 -0.11576 3285 ft 191 kts 75°
2026-05-05 11:43 51.16147 -0.09365 3722 ft 217 kts 75°
2026-05-05 11:43 51.16488 -0.06905 4442 ft 237 kts 76°
2026-05-05 11:43 51.16823 -0.04217 4866 ft 254 kts 82°
2026-05-05 11:44 51.17190 -0.01469 5090 ft 257 kts 65°
2026-05-05 11:44 51.18295 0.00743 5330 ft 259 kts 38°
2026-05-05 11:44 51.19753 0.02393 5548 ft 262 kts 36°
2026-05-05 11:44 51.21248 0.04062 5788 ft 264 kts 36°
2026-05-05 11:45 51.22757 0.05759 5973 ft 267 kts 36°
2026-05-05 11:45 51.24276 0.07473 5999 ft 267 kts 36°
2026-05-05 11:45 51.25786 0.09181 6001 ft 266 kts 36°
2026-05-05 11:45 51.27293 0.10888 6001 ft 266 kts 36°
2026-05-05 11:46 51.28804 0.12602 6000 ft 266 kts 36°
2026-05-05 11:46 51.30313 0.14315 6000 ft 266 kts 36°
2026-05-05 11:46 51.31819 0.16022 6001 ft 266 kts 36°
2026-05-05 11:46 51.33336 0.17746 6171 ft 269 kts 36°
2026-05-05 11:47 51.34868 0.19497 6843 ft 273 kts 36°
2026-05-05 11:47 51.36407 0.21270 8011 ft 273 kts 36°
2026-05-05 11:47 51.37966 0.23079 9064 ft 280 kts 36°
2026-05-05 11:47 51.39520 0.25005 10100 ft 285 kts 41°
2026-05-05 11:48 51.42532 0.29810 11212 ft 329 kts 46°
2026-05-05 11:48 51.44145 0.32505 11927 ft 339 kts 46°
2026-05-05 11:48 51.45765 0.35211 12928 ft 342 kts 46°
2026-05-05 11:49 51.47427 0.37981 13873 ft 347 kts 46°
2026-05-05 11:49 51.49110 0.40782 14678 ft 352 kts 46°
2026-05-05 11:49 51.50822 0.43629 15476 ft 357 kts 46°
2026-05-05 11:49 51.52561 0.46522 16271 ft 362 kts 46°
2026-05-05 11:50 51.54328 0.49457 17048 ft 368 kts 46°
2026-05-05 11:50 51.56118 0.52430 17812 ft 373 kts 46°
2026-05-05 11:50 51.57936 0.55450 18551 ft 378 kts 46°
2026-05-05 11:50 51.59776 0.58500 19202 ft 383 kts 46°
2026-05-05 11:51 51.61652 0.61596 19868 ft 388 kts 46°
2026-05-05 11:51 51.63553 0.64716 20520 ft 393 kts 46°
2026-05-05 11:51 51.65484 0.67874 20871 ft 397 kts 46°
2026-05-05 11:51 51.67428 0.71047 20962 ft 398 kts 46°
2026-05-05 11:52 51.69373 0.74227 20965 ft 398 kts 46°
2026-05-05 11:52 51.71311 0.77401 20965 ft 398 kts 46°
2026-05-05 11:52 51.73257 0.80590 20965 ft 398 kts 46°
2026-05-05 11:52 51.75198 0.83776 20967 ft 398 kts 46°
2026-05-05 11:53 51.77141 0.86969 20967 ft 399 kts 46°
2026-05-05 11:53 51.79081 0.90161 20963 ft 399 kts 46°
2026-05-05 11:53 51.81029 0.93371 20967 ft 399 kts 46°
2026-05-05 11:53 51.82973 0.96578 20961 ft 399 kts 46°
2026-05-05 11:54 51.84913 0.99785 20965 ft 399 kts 46°
2026-05-05 11:54 51.86710 1.03202 20963 ft 399 kts 58°
2026-05-05 11:54 51.87864 1.07250 20965 ft 397 kts 74°
2026-05-05 11:54 51.88372 1.10093 20966 ft 397 kts 75°
2026-05-05 11:55 51.89106 1.14411 20966 ft 397 kts 76°
2026-05-05 11:55 51.89834 1.18726 20967 ft 397 kts 76°
2026-05-05 11:55 51.90566 1.23046 20965 ft 398 kts 76°
2026-05-05 11:55 51.91302 1.27361 20966 ft 398 kts 75°
2026-05-05 11:56 51.92041 1.31682 20969 ft 398 kts 75°
2026-05-05 11:56 51.92780 1.35998 20971 ft 398 kts 75°
2026-05-05 11:56 51.93520 1.40326 20971 ft 399 kts 76°
2026-05-05 11:56 51.94258 1.44655 20971 ft 398 kts 76°
2026-05-05 11:57 51.94994 1.48980 20972 ft 399 kts 76°
2026-05-05 11:57 51.95730 1.53318 20973 ft 399 kts 76°
2026-05-05 11:57 51.96466 1.57664 20975 ft 399 kts 76°
2026-05-05 11:57 51.97199 1.62009 20976 ft 399 kts 76°
2026-05-05 11:58 51.97929 1.66349 20975 ft 400 kts 76°
2026-05-05 11:58 51.98661 1.70706 20979 ft 400 kts 76°
2026-05-05 11:58 51.99390 1.75058 20977 ft 400 kts 76°
2026-05-05 11:58 52.00117 1.79410 20976 ft 400 kts 76°
2026-05-05 11:59 52.00844 1.83765 20977 ft 400 kts 76°
2026-05-05 11:59 52.01568 1.88118 20976 ft 400 kts 76°
2026-05-05 11:59 52.02291 1.92483 20976 ft 400 kts 76°
2026-05-05 11:59 52.03012 1.96843 20977 ft 400 kts 76°
2026-05-05 12:00 52.03734 2.01213 20981 ft 400 kts 76°
2026-05-05 12:00 52.04451 2.05574 20978 ft 400 kts 76°
2026-05-05 12:00 52.05170 2.09950 20979 ft 401 kts 76°
2026-05-05 12:00 52.05888 2.14335 20979 ft 401 kts 76°
2026-05-05 12:01 52.06602 2.18713 20981 ft 401 kts 76°
2026-05-05 12:01 52.07315 2.23092 20979 ft 401 kts 76°
2026-05-05 12:01 52.08028 2.27478 20976 ft 401 kts 76°
2026-05-05 12:01 52.08740 2.31866 20925 ft 401 kts 76°
2026-05-05 12:02 52.09448 2.36249 20689 ft 400 kts 76°
2026-05-05 12:02 52.10152 2.40616 20434 ft 398 kts 76°
2026-05-05 12:02 52.10777 2.44922 20184 ft 394 kts 83°
2026-05-05 12:02 52.10812 2.49342 19937 ft 390 kts 99°
2026-05-05 12:03 52.10135 2.53581 19694 ft 386 kts 114°
2026-05-05 12:03 52.09030 2.57549 19449 ft 384 kts 116°
2026-05-05 12:03 52.07921 2.61495 18992 ft 384 kts 116°
2026-05-05 12:03 52.06811 2.65453 18389 ft 385 kts 116°
2026-05-05 12:04 52.05711 2.69375 17811 ft 380 kts 116°
2026-05-05 12:04 52.04624 2.73249 17241 ft 374 kts 116°
2026-05-05 12:04 52.03553 2.77063 16687 ft 369 kts 116°
2026-05-05 12:04 52.02494 2.80826 16131 ft 364 kts 115°
2026-05-05 12:05 52.01447 2.84543 15592 ft 360 kts 115°
2026-05-05 12:05 52.00410 2.88213 15046 ft 356 kts 115°
2026-05-05 12:05 51.99380 2.91855 14514 ft 354 kts 115°
2026-05-05 12:05 51.98357 2.95467 13969 ft 351 kts 115°
2026-05-05 12:06 51.97339 2.99054 13407 ft 349 kts 115°
2026-05-05 12:06 51.96332 3.02601 12875 ft 345 kts 115°
2026-05-05 12:06 51.95325 3.06110 12351 ft 341 kts 115°
2026-05-05 12:06 51.94323 3.09570 11834 ft 338 kts 115°
2026-05-05 12:07 51.93339 3.12981 11327 ft 335 kts 115°
2026-05-05 12:07 51.92361 3.16388 10803 ft 332 kts 115°
2026-05-05 12:07 51.91393 3.19775 10305 ft 330 kts 115°
2026-05-05 12:07 51.90450 3.23081 10131 ft 317 kts 114°
2026-05-05 12:08 51.89547 3.26246 9998 ft 303 kts 114°
2026-05-05 12:08 51.88683 3.29267 9659 ft 298 kts 114°
2026-05-05 12:08 51.87824 3.32273 9392 ft 290 kts 114°
2026-05-05 12:08 51.86979 3.35222 9197 ft 291 kts 114°
2026-05-05 12:09 51.86117 3.38224 8812 ft 296 kts 114°
2026-05-05 12:09 51.85249 3.41242 8416 ft 295 kts 114°
2026-05-05 12:09 51.84384 3.44240 8004 ft 293 kts 115°
2026-05-05 12:09 51.83527 3.47206 7617 ft 290 kts 115°
2026-05-05 12:10 51.82678 3.50143 7219 ft 287 kts 115°
2026-05-05 12:10 51.81835 3.53056 6834 ft 285 kts 115°
2026-05-05 12:10 51.80999 3.55942 6443 ft 283 kts 115°
2026-05-05 12:10 51.80323 3.58891 6038 ft 279 kts 98°
2026-05-05 12:11 51.80401 3.61961 5772 ft 269 kts 74°
2026-05-05 12:11 51.80970 3.64831 5565 ft 269 kts 71°
2026-05-05 12:11 51.81549 3.67682 5373 ft 264 kts 71°
2026-05-05 12:11 51.82117 3.70503 5169 ft 264 kts 70°
2026-05-05 12:12 51.82681 3.73314 4973 ft 261 kts 70°
2026-05-05 12:12 51.83240 3.76105 4762 ft 260 kts 70°
2026-05-05 12:12 51.83790 3.78865 4554 ft 257 kts 70°
2026-05-05 12:12 51.84337 3.81611 4353 ft 255 kts 70°
2026-05-05 12:13 51.84884 3.84348 4155 ft 255 kts 70°
2026-05-05 12:13 51.85426 3.87071 3956 ft 255 kts 70°
2026-05-05 12:13 51.85923 3.89811 3752 ft 254 kts 76°
2026-05-05 12:13 51.86127 3.92646 3562 ft 255 kts 86°
2026-05-05 12:14 51.86144 3.95511 3415 ft 253 kts 87°
2026-05-05 12:14 51.86173 3.98315 3216 ft 253 kts 86°
2026-05-05 12:14 51.86211 4.01186 3014 ft 250 kts 86°
2026-05-05 12:14 51.86249 4.04008 2819 ft 251 kts 86°
2026-05-05 12:15 51.86286 4.06827 2613 ft 252 kts 86°
2026-05-05 12:15 51.86320 4.09617 2422 ft 249 kts 86°
2026-05-05 12:15 51.86352 4.12386 2225 ft 247 kts 86°
2026-05-05 12:15 51.86385 4.15168 2042 ft 248 kts 86°
2026-05-05 12:16 51.86417 4.17923 1976 ft 239 kts 86°
2026-05-05 12:16 51.86623 4.20502 1981 ft 224 kts 72°
2026-05-05 12:16 51.87201 4.22751 1981 ft 210 kts 60°
2026-05-05 12:16 51.87925 4.24711 1976 ft 197 kts 55°
2026-05-05 12:17 51.88653 4.26485 1977 ft 183 kts 56°
2026-05-05 12:17 51.89309 4.28129 1965 ft 164 kts 55°
2026-05-05 12:17 51.89902 4.29602 1945 ft 147 kts 56°
2026-05-05 12:17 51.90446 4.30957 1793 ft 142 kts 55°
2026-05-05 12:18 51.90983 4.32292 1608 ft 141 kts 54°
2026-05-05 12:18 51.91515 4.33618 1406 ft 140 kts 55°
2026-05-05 12:18 51.92045 4.34939 1215 ft 139 kts 54°
2026-05-05 12:18 51.92573 4.36255 1027 ft 139 kts 55°
2026-05-05 12:19 51.93092 4.37551 830 ft 133 kts 54°
2026-05-05 12:19 51.93583 4.38774 660 ft 127 kts 56°
2026-05-05 12:19 51.94054 4.39954 489 ft 123 kts 56°
2026-05-05 12:19 51.94503 4.41069 349 ft 114 kts 56°
2026-05-05 12:20 51.94926 4.42126 196 ft 113 kts 57°
2026-05-05 12:20 51.95360 4.43208 38 ft 114 kts 56°
2026-05-05 12:20 51.95760 4.44199 -5 ft 82 kts 57°
2026-05-05 12:20 51.95914 4.44597 -5 ft 10 kts 75°
2026-05-05 12:21 51.95887 4.44701 -5 ft 13 kts 141°
2026-05-05 12:21 51.95859 4.44732 -5 ft 7 kts 147°
2026-05-05 12:21 51.95837 4.44752 -5 ft 5 kts 152°
2026-05-05 12:21 51.95770 4.44716 -6 ft 14 kts 231°
2026-05-05 12:22 51.95704 4.44561 -6 ft 18 kts 239°
2026-05-05 12:22 51.95630 4.44370 -6 ft 21 kts 236°
2026-05-05 12:22 51.95543 4.44159 -6 ft 24 kts 237°
2026-05-05 12:22 51.95447 4.43919 -6 ft 27 kts 236°
2026-05-05 12:23 51.95356 4.43689 -6 ft 27 kts 237°
2026-05-05 12:23 51.95279 4.43531 -6 ft 16 kts 208°
2026-05-05 12:23 51.95182 4.43576 -6 ft 16 kts 149°
2026-05-05 12:23 51.95083 4.43680 -6 ft 13 kts 148°
2026-05-05 12:24 51.95028 4.43694 -6 ft 8 kts 226°
2026-05-05 12:24 51.95000 4.43612 -6 ft 4 kts 269°
2026-05-05 12:24 51.95020 4.43583 -6 ft 4 kts 324°
2026-05-05 12:24 51.95039 4.43563 -6 ft 2 kts 328°
2026-05-05 12:25 51.95039 4.43562 -6 ft 0 kts 328°